Location: Asheville, NC
(35.6000°N, 82.5500°W)
Time: 00:18:29
(UTC-04:00)

M-CUBED/EXP-1 PRIME - Pass Details

Date: 18 March 2018
Orbit: 431 x 675 km, 101.7° (Epoch: 22 June)

Event Time Altitude Azimuth Distance (km) Brightness Sun altitude
Rises 20:26:19 0° 207° (SSW) 2,422 ? -10.2°
Reaches altitude 10° 20:29:27 10° 241° (WSW) 1,595 ? -10.8°
Maximum altitude 20:30:43 12° 263° (W) 1,513 ? -11.0°
Drops below altitude 10° 20:32:01 10° 285° (WNW) 1,637 ? -11.3°
Sets 20:35:22 0° 319° (NW) 2,582 ? -12.0°
